Regional Weather Roundup
Issued by NWS

Home | Current Version | Previous Version | Graphics & Text | Print | Product List | Glossary Off
Versions: 1 2 3 4 5 6 7 8 9 10 11 12 13 14 15 16 17 18 19 20 21 22 23 24 25 26 27 28 29 30 31 32 33 34 35 36 37 38 39 40 41 42 43 44 45 46 47 48 49 50

000
ASUS43 KMKX 221459
RWRWI

WISCONSIN REGIONAL WEATHER ROUNDUP
NATIONAL WEATHER SERVICE MILWAUKEE/SULLIVAN WI
900 AM CST SUN JAN 22 2017

NOTE: "FAIR" INDICATES FEW OR NO CLOUDS BELOW 12,000 FEET WITH NO
SIGNIFICANT WEATHER AND/OR OBSTRUCTIONS TO VISIBILITY.

WIZ001-002-006>008-014>016-023>028-221600-
NORTHWEST WISCONSIN

CITY           SKY/WX    TMP DP  RH WIND       PRES   REMARKS
SUPERIOR ARPT  CLOUDY    34  34 100 CALM      29.66R
ASHLAND        FOG       35  34  96 N7        29.65R VSB<1/4 WCI  29
HAYWARD        CLOUDY    35  33  92 CALM      29.63R FOG
SIREN          CLOUDY    35  34  99 NW5       29.66R FOG     WCI  31
CUMBERLAND     FOG       32  32 100 NW3       29.64R VSB 1/2
RICE LAKE      FOG       34  34 100 CALM      29.65R VSB 3/4
CHETEK         CLOUDY    33  33 100 CALM      29.64R FOG
LADYSMITH      FOG       34  34  99 W3        29.64R VSB 1/4
EAU CLAIRE     CLOUDY    34  34 100 W5        29.64R FOG     WCI  30
MENOMONIE        N/A    N/A N/A N/A MISG        N/A
NEW RICHMOND   FOG       34  34 100 NW5       29.66R VSB 3/4 WCI  30
OSCEOLA        FOG       34  34 100 NW5       29.69R VSB 1/2 WCI  30
$$

WIZ003>005-009-010-017-018-221600-
NORTH CENTRAL WISCONSIN

CITY           SKY/WX    TMP DP  RH WIND       PRES   REMARKS
MANITOWISH WTR FOG       33  33 100 CALM      29.58R VSB 1/2
ARBOR VITAE    FOG       37  36  98 CALM      29.58R VSB 3/4
WOODRUFF       FOG       37  36  98 CALM      29.58R VSB 3/4
RHINELANDER    FOG       36  35  96 N3        29.59R VSB 1/4
EAGLE RIVER    FOG       34  34 100 CALM      29.58R VSB 1/4
LAND O LAKES   FOG       35  35 100 CALM      29.60R VSB 1/4
PHILLIPS       FOG       33  33 100 CALM      29.59R VSB 1
TOMAHAWK       FOG       34  33  97 CALM      29.60R VSB 1/2
MEDFORD        FOG       33  33  99 CALM      29.60R VSB<1/4
MERRILL        CLOUDY    34  34 100 CALM        N/A  FOG
$$

WIZ029-030-035-036-043>047-221600-
CENTRAL WISCONSIN

CITY           SKY/WX    TMP DP  RH WIND       PRES   REMARKS
WAUSAU         CLOUDY    34  34 100 NW3       29.59R FOG
MOSINEE        FOG       34  34 100 CALM      29.61R VSB 1/4
MARSHFIELD     FOG       34  33  96 NW5       29.60R VSB 1/4 WCI  30
STEVENS POINT  FOG       34  34 100 CALM      29.61R VSB 1
WAUPACA        FOG       37  36  96 CALM      29.62R VSB 1/4
WAUTOMA        FOG       35  34  96 CALM      29.65R VSB 1/4
WISC RAPIDS    CLOUDY    36  36 100 NW3       29.63R FOG
CAMP DOUGLAS   NOT AVBL
$$

WIZ011>013-019>022-031-037>040-048>050-221600-
NORTHEAST WISCONSIN

CITY           SKY/WX    TMP DP  RH WIND       PRES   REMARKS
ANTIGO         FOG       32  32 100 CALM      29.59R VSB 1/2
SHAWANO        FOG       36  34  95 CALM      29.62R VSB 1/2
OCONTO         CLOUDY    33  33  99 CALM      29.61R VSB 1/4
STURGEON BAY   FOG       37  37 100 CALM      29.63R VSB 1/4
GREEN BAY      FOG       37  37 100 S5        29.63R VSB 1/4 WCI  33
MANITOWOC      CLOUDY    37  37 100 SW5       29.64R FOG     WCI  34
APPLETON       FOG       36  36 100 VRB5      29.61R VSB 1/8 WCI  32
CLINTONVILLE   FOG       34  34 100 CALM      29.62R VSB 1/4
OSHKOSH        FOG       36  36 100 CALM      29.64R VSB<1/4
$$

WIZ032>034-041-042-053>061-221600-
SOUTHWEST WISCONSIN

CITY           SKY/WX    TMP DP  RH WIND       PRES   REMARKS
LA CROSSE      FOG       38  35  89 CALM      29.66R VSB 1/4
SPARTA         FOG       34  34 100 W3        29.65R VSB 1/4
VIROQUA        CLOUDY    35  35 100 W5        29.63R WCI  30
BOSCOBEL       CLOUDY    37  36  96 CALM      29.66R FOG
PRAIRIE DU CHI FOG       33  33  97 CALM      29.65R VSB 1/2
PLATTEVILLE    CLOUDY    33  33 100 N5        29.64R WCI  29
$$

WIZ056-057-062-063-064-067-068-221600-
SOUTH CENTRAL WISCONSIN

CITY           SKY/WX    TMP DP  RH WIND       PRES   REMARKS
REEDSBURG      CLOUDY    36  36 100 CALM      29.64R FOG
BARABOO/DELLS  FOG       36  35  99 CALM      29.63R VSB 1/4
LONE ROCK      NOT AVBL
MINERAL POINT  CLOUDY    36  36 100 CALM      29.62S FOG
MADISON        CLOUDY    37  36  96 CALM      29.65R FOG
MIDDLETON      CLOUDY    37  37 100 NW6       29.63S VSB 1/4 WCI  32
WATERTOWN      FOG       36  36 100 SW3       29.64R VSB 1/2
MONROE         CLOUDY    32  32 100 CALM      29.63R FOG
JANESVILLE     CLOUDY    37  37 100 CALM      29.65R FOG
$$

WIZ051-052-058>065-066-070>072-221600-
SOUTHEAST WISCONSIN

CITY           SKY/WX    TMP DP  RH WIND       PRES   REMARKS
MILWAUKEE      CLOUDY    42  39  89 NW3       29.64R FOG
WAUKESHA       FOG       37  37 100 SW2       29.65R VSB 1
MILWAUKEE/TIMM CLOUDY    39  37  93 NW6       29.64R FOG     WCI  35
RACINE         CLOUDY    40  39  97 CALM      29.66R FOG
KENOSHA        CLOUDY    40  38  93 W5        29.64R FOG
FOND DU LAC    FOG       36  34  92 CALM      29.64R VSB 1/4
SHEBOYGAN      CLOUDY    37  36  96 W3        29.64R FOG
WEST BEND      FOG       37  37 100 CALM      29.63R VSB 1/4
JUNEAU         FOG       37  36  99 S5        29.64R VSB<1/4 WCI  33
$$

LSZ147-162-221600-
LAKE SUPERIOR

STATION/POSITION TIME  TEMP    WIND        PRES    WAVE
                       AIR SEA DIR/SP/G            HT/PER
                 (UTC) (F)     (DEG/KT/KT) (MB)    (FT/S)
DEVILS ISLAND    1400   35      20/ 11/ 12 1004.0R
PORT WING        1430   34      40/  5/  6 1004.4R
SAXON HARBOR     1440   33      CALM  /  1 1003.7R
$$

LMZ867-665-643>646-221600-
LAKE MICHIGAN

STATION/POSITION TIME  TEMP    WIND        PRES    WAVE
                       AIR SEA DIR/SP/G            HT/PER
                 (UTC) (F)     (DEG/KT/KT) (MB)    (FT/S)
NORTHPORT PIER   1440   34        CALM     1003.0R
SISTER BAY       1405   36        CALM       N/A
KEWAUNEE LAKESHO 1430   38      CALM  /  3 1002.6R
SHEBOYGAN LAKESH 1400   40     260/  5/  6 1003.2R
PORT WASHINGTON  1440   42     270/  3/  4 1004.7R
KENOSHA   LAKESH 1400   37        CALM     1003.7
$$

TC  - TEMPERATURE IN CELSIUS
VSB - VISIBILITY IN STATUTE MILES
WCI - WIND CHILL INDEX
HX  - HEAT INDEX




USA.gov is the U.S. government's official web portal to all federal, state and local government web resources and services.